{"data":{"norad_id":68535,"intl_designator":"2026-068AD","name":"STARLINK-37234","alt_names":[],"object_type":"PAYLOAD","status":"ACTIVE","operator":null,"country":"US","launch_date":"2026-03-30","launch_site_code":"AFETR","launch_vehicle":null,"mission":null,"orbit_class":"UNKNOWN","rcs_meters":null,"size_class":null,"mass_kg":null,"dimensions":null,"purposes":["comms"],"wikipedia_slug":null,"has_3d_model":false,"image_url":null,"decayed_at":null,"tle_current":{"epoch":"2026-09-19T19:56:14.106048Z","epoch_age_seconds":105160,"freshness":"FRESH","line1":"1 68535U 26068AD  26262.83071882  .00012598  00000+0  38324-3 0  9991","line2":"2 68535  53.1601 297.1969 0000686  32.9523 327.1522 15.34410262 26819","mean_motion":15.34410262,"eccentricity":6.86e-5,"inclination_deg":53.1601,"raan_deg":297.1969,"arg_perigee_deg":32.9523,"mean_anomaly_deg":327.1522,"bstar":0.00038324,"rev_number":2681,"period_min":93.847130435836,"perigee_km":462.20346000234,"apogee_km":463.14201909861,"semimajor_km":6840.8097395505,"source":"CELESTRAK","updated_at":"2026-09-20T09:00:43.909059Z"}}}